Location: Roma
(41.8933°N, 12.4829°E)
Time: 23:44:14
(UTC+02:00)

BlueWalker 3 - Visible Passes

Search period start: 28 September 2023 00:00
Search period end: 08 October 2023 00:00
Orbit: 491 x 508 km, 53.2° (Epoch: 28 September)

Date Brightness Start Highest point End Pass type
(mag) Time Alt. Az. Time Alt. Az. Time Alt. Az.
28 Sep 4.4 04:40:46 16° N 04:41:06 16° N 04:43:31 10° NE visible
28 Sep 3.5 06:16:56 10° NW 06:20:28 33° NNE 06:24:00 10° E visible
29 Sep 4.7 04:20:14 15° NNE 04:20:14 15° NNE 04:21:57 10° NE visible
29 Sep 3.5 05:55:23 10° NW 05:58:54 33° NNE 06:02:26 10° E visible
30 Sep 5.1 03:59:46 12° NE 03:59:46 12° NE 04:00:23 10° NE visible
30 Sep 3.4 05:34:25 14° NW 05:37:20 33° NNE 05:40:52 10° E visible
01 Oct 3.4 05:14:03 23° NNW 05:15:45 33° NNE 05:19:17 10° E visible
02 Oct 3.3 04:53:49 33° NNE 04:54:09 33° NNE 04:57:41 10° E visible
02 Oct 2.4 06:29:01 10° WNW 06:32:39 41° SW 06:36:17 10° SSE visible
03 Oct 4.0 04:33:42 27° ENE 04:33:42 27° ENE 04:36:05 10° E visible
03 Oct 2.4 06:08:23 16° WNW 06:11:02 40° SW 06:14:40 10° SSE visible
04 Oct 4.9 04:13:46 14° E 04:13:46 14° E 04:14:28 10° E visible
04 Oct 2.4 05:48:26 33° W 05:49:24 40° SW 05:53:02 10° SSE visible
05 Oct 2.8 05:28:40 34° S 05:28:40 34° S 05:31:23 10° SSE visible
06 Oct 4.3 05:09:02 14° SSE 05:09:02 14° SSE 05:09:43 10° SSE visible
07 Oct 3.8 20:05:27 10° S 20:06:47 16° SSE 20:06:47 16° SSE visible
